TimeMST,TemperatureF,Dew PointF,Humidity,Sea Level PressureIn,VisibilityMPH,Wind Direction,Wind SpeedMPH,Gust SpeedMPH,PrecipitationIn,Events,Conditions,WindDirDegrees,DateUTC
12:53 AM,41.0,32.0,70,29.97,10.0,NNE,17.3,25.3,N/A,,Overcast,30,2012-11-08 07:53:00
1:53 AM,39.9,30.9,70,29.97,10.0,NNE,11.5,-,N/A,,Overcast,30,2012-11-08 08:53:00
2:29 AM,39.2,32.0,75,30.01,10.0,NE,4.6,-,0.00,Rain,Light Rain,40,2012-11-08 09:29:00
2:53 AM,39.9,33.1,77,29.98,10.0,East,5.8,-,0.01,Rain,Light Rain,100,2012-11-08 09:53:00
3:03 AM,41.0,30.2,65,30.01,10.0,East,5.8,-,0.00,,Overcast,90,2012-11-08 10:03:00
3:53 AM,39.9,30.9,70,29.98,10.0,ENE,5.8,-,0.00,,Overcast,60,2012-11-08 10:53:00
4:53 AM,41.0,28.0,60,29.97,10.0,ENE,10.4,-,N/A,,Overcast,60,2012-11-08 11:53:00
5:53 AM,39.0,30.0,70,30.00,10.0,NE,9.2,-,N/A,,Overcast,40,2012-11-08 12:53:00
6:53 AM,37.9,28.0,68,30.02,10.0,NE,12.7,-,N/A,,Overcast,40,2012-11-08 13:53:00
7:53 AM,34.0,28.0,79,30.04,10.0,ENE,17.3,-,N/A,,Overcast,60,2012-11-08 14:53:00
8:53 AM,32.0,27.0,82,30.03,10.0,ENE,25.3,-,N/A,,Overcast,60,2012-11-08 15:53:00
9:38 AM,32.0,26.6,80,29.99,10.0,NE,20.7,29.9,N/A,,Mostly Cloudy,50,2012-11-08 16:38:00
9:47 AM,32.0,26.6,80,29.98,10.0,NE,20.7,28.8,N/A,,Mostly Cloudy,50,2012-11-08 16:47:00
9:53 AM,32.0,27.0,82,30.04,10.0,ENE,20.7,-,N/A,,Mostly Cloudy,60,2012-11-08 16:53:00
10:21 AM,32.0,26.6,80,29.98,10.0,NE,23.0,-,N/A,,Overcast,40,2012-11-08 17:21:00
10:48 AM,32.0,26.6,80,29.96,10.0,NE,25.3,31.1,N/A,,Overcast,40,2012-11-08 17:48:00
10:53 AM,32.0,27.0,82,30.01,10.0,NE,23.0,31.1,N/A,,Overcast,50,2012-11-08 17:53:00
11:22 AM,33.8,26.6,75,29.95,10.0,NE,24.2,27.6,N/A,,Overcast,50,2012-11-08 18:22:00
11:53 AM,33.1,26.1,75,29.97,10.0,NE,21.9,-,N/A,,Overcast,50,2012-11-08 18:53:00
12:53 PM,34.0,27.0,75,29.95,10.0,NE,17.3,27.6,N/A,,Overcast,50,2012-11-08 19:53:00
1:53 PM,34.0,27.0,75,29.92,10.0,NE,18.4,-,N/A,,Overcast,50,2012-11-08 20:53:00
2:28 PM,33.8,26.6,75,29.85,10.0,ENE,20.7,-,N/A,,Mostly Cloudy,60,2012-11-08 21:28:00
2:53 PM,34.0,27.0,75,29.91,10.0,NE,16.1,-,N/A,,Overcast,40,2012-11-08 21:53:00
3:53 PM,34.0,26.1,73,29.91,10.0,NE,16.1,-,N/A,,Overcast,40,2012-11-08 22:53:00
4:53 PM,33.1,27.0,78,29.91,10.0,NE,13.8,-,N/A,,Overcast,40,2012-11-08 23:53:00
5:46 PM,33.8,26.6,75,29.85,10.0,NE,13.8,-,N/A,,Overcast,50,2012-11-09 00:46:00
5:53 PM,33.1,26.1,75,29.91,10.0,NE,17.3,23.0,N/A,,Overcast,50,2012-11-09 00:53:00
6:53 PM,33.1,26.1,75,29.90,10.0,NE,11.5,-,N/A,,Overcast,40,2012-11-09 01:53:00
7:53 PM,32.0,26.1,79,29.88,10.0,NE,12.7,-,N/A,,Overcast,40,2012-11-09 02:53:00
8:53 PM,32.0,27.0,82,29.88,10.0,NE,11.5,-,N/A,,Overcast,50,2012-11-09 03:53:00
9:32 PM,32.0,26.6,80,29.79,10.0,NE,12.7,-,N/A,,Overcast,40,2012-11-09 04:32:00
9:53 PM,32.0,28.0,85,29.86,10.0,NE,15.0,-,N/A,,Overcast,40,2012-11-09 04:53:00
10:01 PM,32.0,28.4,87,29.77,10.0,NE,13.8,-,N/A,,Overcast,40,2012-11-09 05:01:00
10:53 PM,32.0,28.0,85,29.83,10.0,NE,13.8,-,N/A,,Overcast,50,2012-11-09 05:53:00
11:53 PM,30.9,28.0,89,29.83,10.0,NE,10.4,-,N/A,,Overcast,50,2012-11-09 06:53:00